| time (UTC) | temp C | wind direction | speed KPH | gust KPH | rain 1hr cm | rain 24hr cm | rain mn cm | humidity % | barometer mb |
| 20260507220221 | 37 | 304 | 4.8 | 0.0 | 0.00 | 0.00 | 0.00 | 29 | 1002.9 |
| 20260507214219 | 37 | 271 | 4.8 | 0.0 | 0.00 | 0.00 | 0.00 | 28 | 1002.9 |
| 20260507213219 | 38 | 237 | 1.6 | 0.0 | 0.00 | 0.00 | 0.00 | 29 | 1002.9 |
| 20260507212218 | 39 | 53 | 1.6 | 0.0 | 0.00 | 0.00 | 0.00 | 29 | 1002.9 |
| 20260507211218 | 38 | 283 | 8.0 | 0.0 | 0.00 | 0.00 | 0.00 | 30 | 1002.9 |
| 20260507210217 | 37 | 307 | 4.8 | 0.0 | 0.00 | 0.00 | 0.00 | 29 | 1002.9 |
| 20260507205216 | 37 | 255 | 6.4 | 0.0 | 0.00 | 0.00 | 0.00 | 29 | 1002.9 |
| 20260507204216 | 38 | 294 | 4.8 | 0.0 | 0.00 | 0.00 | 0.00 | 32 | 1002.9 |
| 20260507203215 | 37 | 285 | 8.0 | 0.0 | 0.00 | 0.00 | 0.00 | 33 | 1003.2 |
| 20260507202215 | 37 | 264 | 9.7 | 0.0 | 0.00 | 0.00 | 0.00 | 33 | 1003.2 |
| 20260507201214 | 37 | 28 | 4.8 | 0.0 | 0.00 | 0.00 | 0.00 | 34 | 1003.6 |
| 20260507200214 | 37 | 341 | 4.8 | 0.0 | 0.00 | 0.00 | 0.00 | 33 | 1003.6 |
| 20260507195213 | 36 | 209 | 4.8 | 0.0 | 0.00 | 0.00 | 0.00 | 34 | 1003.6 |
| 20260507194212 | 37 | 254 | 8.0 | 0.0 | 0.00 | 0.00 | 0.00 | 32 | 1003.6 |
| 20260507193212 | 37 | 135 | 4.8 | 0.0 | 0.00 | 0.00 | 0.00 | 32 | 1003.9 |
| 20260507192211 | 37 | 222 | 4.8 | 0.0 | 0.00 | 0.00 | 0.00 | 33 | 1003.9 |
| 20260507191211 | 35 | 212 | 9.7 | 0.0 | 0.00 | 0.00 | 0.00 | 36 | 1004.6 |
| 20260507190210 | 36 | 239 | 8.0 | 0.0 | 0.00 | 0.00 | 0.00 | 34 | 1004.6 |
| 20260507185210 | 37 | 209 | 3.2 | 0.0 | 0.00 | 0.00 | 0.00 | 36 | 1004.6 |
| 20260507184209 | 36 | 32 | 4.8 | 0.0 | 0.00 | 0.00 | 0.00 | 36 | 1004.9 |
| 20260507183208 | 37 | 183 | 3.2 | 0.0 | 0.00 | 0.00 | 0.00 | 34 | 1005.3 |
| 20260507182208 | 37 | 81 | 4.8 | 0.0 | 0.00 | 0.00 | 0.00 | 35 | 1005.6 |
| 20260507181207 | 37 | 120 | 8.0 | 0.0 | 0.00 | 0.00 | 0.00 | 36 | 1005.3 |
| 20260507180207 | 37 | 253 | 3.2 | 0.0 | 0.00 | 0.00 | 0.00 | 38 | 1005.3 |
| 20260507175206 | 37 | 28 | 3.2 | 0.0 | 0.00 | 0.00 | 0.00 | 39 | 1005.6 |
| 20260507174206 | 36 | 63 | 3.2 | 0.0 | 0.00 | 0.00 | 0.00 | 42 | 1005.6 |
| 20260507173205 | 36 | 165 | 4.8 | 0.0 | 0.00 | 0.00 | 0.00 | 40 | 1005.6 |
| 20260507172206 | 36 | 271 | 4.8 | 0.0 | 0.00 | 0.00 | 0.00 | 39 | 1005.6 |
| 20260507171205 | 36 | 352 | 3.2 | 0.0 | 0.00 | 0.00 | 0.00 | 41 | 1005.6 |
| 20260507170205 | 35 | 280 | 9.7 | 0.0 | 0.00 | 0.00 | 0.00 | 42 | 1005.6 |
| 20260507170203 | 35 | 280 | 9.7 | 0.0 | 0.00 | 0.00 | 0.00 | 42 | 1005.6 |
| 20260507165204 | 35 | 241 | 6.4 | 0.0 | 0.00 | 0.00 | 0.00 | 42 | 1005.6 |
| 20260507164204 | 35 | 215 | 3.2 | 0.0 | 0.00 | 0.00 | 0.00 | 45 | 1005.6 |
| 20260507164202 | 35 | 215 | 3.2 | 0.0 | 0.00 | 0.00 | 0.00 | 45 | 1005.6 |
| 20260507163203 | 35 | 271 | 3.2 | 0.0 | 0.00 | 0.00 | 0.00 | 42 | 1005.9 |
| 20260507163201 | 35 | 271 | 3.2 | 0.0 | 0.00 | 0.00 | 0.00 | 42 | 1005.9 |
| 20260507162203 | 34 | 193 | 4.8 | 0.0 | 0.00 | 0.00 | 0.00 | 45 | 1005.9 |
| 20260507162201 | 34 | 193 | 4.8 | 0.0 | 0.00 | 0.00 | 0.00 | 45 | 1005.9 |
| 20260507161202 | 33 | 0 | 3.2 | 0.0 | 0.00 | 0.00 | 0.00 | 47 | 1006.3 |
| 20260507161200 | 33 | 0 | 3.2 | 0.0 | 0.00 | 0.00 | 0.00 | 47 | 1006.3 |
| 20260507160202 | 34 | 219 | 3.2 | 0.0 | 0.00 | 0.00 | 0.00 | 47 | 1006.3 |
| 20260507160200 | 34 | 219 | 3.2 | 0.0 | 0.00 | 0.00 | 0.00 | 47 | 1006.3 |
| 20260507155201 | 33 | 305 | 8.0 | 0.0 | 0.00 | 0.00 | 0.00 | 48 | 1006.3 |
| 20260507155159 | 33 | 305 | 8.0 | 0.0 | 0.00 | 0.00 | 0.00 | 48 | 1006.3 |
| 20260507154201 | 33 | 181 | 6.4 | 0.0 | 0.00 | 0.00 | 0.00 | 48 | 1006.3 |
| 20260507154158 | 33 | 181 | 6.4 | 0.0 | 0.00 | 0.00 | 0.00 | 48 | 1006.3 |
| 20260507153200 | 34 | 32 | 3.2 | 0.0 | 0.00 | 0.00 | 0.00 | 48 | 1006.6 |
| 20260507153157 | 34 | 32 | 3.2 | 0.0 | 0.00 | 0.00 | 0.00 | 48 | 1006.6 |
| 20260507152200 | 32 | 280 | 6.4 | 0.0 | 0.00 | 0.00 | 0.00 | 51 | 1006.6 |
| 20260507152157 | 32 | 280 | 6.4 | 0.0 | 0.00 | 0.00 | 0.00 | 51 | 1006.6 |
| 20260507151159 | 32 | 254 | 4.8 | 0.0 | 0.00 | 0.00 | 0.00 | 50 | 1006.6 |
| 20260507151156 | 32 | 254 | 4.8 | 0.0 | 0.00 | 0.00 | 0.00 | 50 | 1006.6 |
| 20260507150159 | 32 | 213 | 4.8 | 0.0 | 0.00 | 0.00 | 0.00 | 52 | 1006.6 |
| 20260507150155 | 32 | 213 | 4.8 | 0.0 | 0.00 | 0.00 | 0.00 | 52 | 1006.6 |
| 20260507145158 | 31 | 214 | 4.8 | 0.0 | 0.00 | 0.00 | 0.00 | 58 | 1007.3 |
| 20260507145154 | 31 | 214 | 4.8 | 0.0 | 0.00 | 0.00 | 0.00 | 58 | 1007.3 |
| 20260507144157 | 31 | 29 | 4.8 | 0.0 | 0.00 | 0.00 | 0.00 | 58 | 1006.6 |
| 20260507144154 | 31 | 29 | 4.8 | 0.0 | 0.00 | 0.00 | 0.00 | 58 | 1006.6 |
| 20260507143157 | 29 | 176 | 8.0 | 0.0 | 0.00 | 0.00 | 0.00 | 60 | 1007.3 |
| 20260507143153 | 29 | 176 | 8.0 | 0.0 | 0.00 | 0.00 | 0.00 | 60 | 1007.3 |
| 20260507142156 | 30 | 245 | 4.8 | 0.0 | 0.00 | 0.00 | 0.00 | 61 | 1006.6 |
| 20260507142152 | 30 | 245 | 4.8 | 0.0 | 0.00 | 0.00 | 0.00 | 61 | 1006.6 |
| 20260507141156 | 29 | 272 | 6.4 | 0.0 | 0.00 | 0.00 | 0.00 | 62 | 1007.3 |
| 20260507141151 | 29 | 272 | 6.4 | 0.0 | 0.00 | 0.00 | 0.00 | 62 | 1007.3 |
| 20260507140155 | 29 | 65 | 3.2 | 0.0 | 0.00 | 0.00 | 0.00 | 63 | 1007.3 |
| 20260507140151 | 29 | 65 | 3.2 | 0.0 | 0.00 | 0.00 | 0.00 | 63 | 1007.3 |
| 20260507135155 | 27 | 212 | 11.3 | 0.0 | 0.00 | 0.00 | 0.00 | 65 | 1007.3 |
| 20260507135150 | 27 | 212 | 11.3 | 0.0 | 0.00 | 0.00 | 0.00 | 65 | 1007.3 |
| 20260507134154 | 28 | 125 | 4.8 | 0.0 | 0.00 | 0.00 | 0.00 | 64 | 1007.3 |
| 20260507134150 | 28 | 125 | 4.8 | 0.0 | 0.00 | 0.00 | 0.00 | 64 | 1007.3 |
| 20260507133154 | 27 | 292 | 4.8 | 0.0 | 0.00 | 0.00 | 0.00 | 64 | 1007.3 |
| 20260507133149 | 27 | 292 | 4.8 | 0.0 | 0.00 | 0.00 | 0.00 | 64 | 1007.3 |
| 20260507132153 | 27 | 146 | 4.8 | 0.0 | 0.00 | 0.00 | 0.00 | 64 | 1007.3 |
| 20260507132148 | 27 | 146 | 4.8 | 0.0 | 0.00 | 0.00 | 0.00 | 64 | 1007.3 |
| 20260507131153 | 27 | 201 | 3.2 | 0.0 | 0.00 | 0.00 | 0.00 | 69 | 1007.3 |
| 20260507131148 | 27 | 201 | 3.2 | 0.0 | 0.00 | 0.00 | 0.00 | 69 | 1007.3 |
| 20260507130152 | 26 | 212 | 1.6 | 0.0 | 0.00 | 0.00 | 0.00 | 73 | 1007.3 |
| 20260507130147 | 26 | 212 | 1.6 | 0.0 | 0.00 | 0.00 | 0.00 | 73 | 1007.3 |
| 20260507125152 | 25 | 306 | 8.0 | 0.0 | 0.00 | 0.00 | 0.00 | 76 | 1007.3 |
| 20260507125147 | 25 | 306 | 8.0 | 0.0 | 0.00 | 0.00 | 0.00 | 76 | 1007.3 |
| 20260507124151 | 24 | 97 | 6.4 | 0.0 | 0.00 | 0.00 | 0.00 | 81 | 1006.6 |
| 20260507124146 | 24 | 97 | 6.4 | 0.0 | 0.00 | 0.00 | 0.00 | 81 | 1006.6 |
| 20260507123151 | 23 | 165 | 6.4 | 0.0 | 0.00 | 0.00 | 0.00 | 83 | 1007.3 |
| 20260507123145 | 23 | 165 | 6.4 | 0.0 | 0.00 | 0.00 | 0.00 | 83 | 1007.3 |
| 20260507122150 | 22 | 198 | 4.8 | 0.0 | 0.00 | 0.00 | 0.00 | 86 | 1006.6 |
| 20260507122145 | 22 | 198 | 4.8 | 0.0 | 0.00 | 0.00 | 0.00 | 86 | 1006.6 |
| 20260507121150 | 22 | 19 | 3.2 | 0.0 | 0.00 | 0.00 | 0.00 | 87 | 1007.3 |
| 20260507121144 | 22 | 19 | 3.2 | 0.0 | 0.00 | 0.00 | 0.00 | 87 | 1007.3 |
| 20260507120149 | 21 | 214 | 3.2 | 0.0 | 0.00 | 0.00 | 0.00 | 88 | 1007.3 |
| 20260507120143 | 21 | 214 | 3.2 | 0.0 | 0.00 | 0.00 | 0.00 | 88 | 1007.3 |
| 20260507115149 | 21 | 230 | 1.6 | 0.0 | 0.00 | 0.00 | 0.00 | 89 | 1007.3 |
| 20260507115143 | 21 | 230 | 1.6 | 0.0 | 0.00 | 0.00 | 0.00 | 89 | 1007.3 |
| 20260507114148 | 21 | 27 | 0.0 | 0.0 | 0.00 | 0.00 | 0.00 | 89 | 1006.6 |
| 20260507114142 | 21 | 34 | 1.6 | 0.0 | 0.00 | 0.00 | 0.00 | 89 | 1006.6 |
| 20260507113148 | 21 | 37 | 0.0 | 0.0 | 0.00 | 0.00 | 0.00 | 90 | 1006.6 |
| 20260507113142 | 21 | 37 | 0.0 | 0.0 | 0.00 | 0.00 | 0.00 | 90 | 1006.6 |
| 20260507112141 | 20 | 45 | 0.0 | 0.0 | 0.00 | 0.00 | 0.00 | 91 | 1006.3 |
| 20260507111147 | 20 | 303 | 3.2 | 0.0 | 0.00 | 0.00 | 0.00 | 92 | 1006.3 |
| 20260507111141 | 20 | 303 | 3.2 | 0.0 | 0.00 | 0.00 | 0.00 | 92 | 1006.3 |
| 20260507110146 | 20 | 53 | 1.6 | 0.0 | 0.00 | 0.00 | 0.00 | 93 | 1006.3 |
| 20260507110140 | 20 | 53 | 1.6 | 0.0 | 0.00 | 0.00 | 0.00 | 93 | 1006.3 |
| 20260507105145 | 19 | 29 | 0.0 | 0.0 | 0.00 | 0.00 | 0.00 | 94 | 1006.3 |
| 20260507105140 | 19 | 29 | 0.0 | 0.0 | 0.00 | 0.00 | 0.00 | 94 | 1006.3 |
| 20260507104145 | 19 | 28 | 0.0 | 0.0 | 0.00 | 0.00 | 0.00 | 94 | 1006.3 |
| 20260507104139 | 19 | 26 | 0.0 | 0.0 | 0.00 | 0.00 | 0.00 | 94 | 1006.3 |
| 20260507103145 | 19 | 35 | 0.0 | 0.0 | 0.00 | 0.00 | 0.00 | 94 | 1006.3 |
| 20260507103138 | 19 | 35 | 0.0 | 0.0 | 0.00 | 0.00 | 0.00 | 94 | 1006.3 |
| 20260507102144 | 19 | 34 | 0.0 | 0.0 | 0.00 | 0.00 | 0.00 | 94 | 1006.3 |
| 20260507102138 | 19 | 34 | 0.0 | 0.0 | 0.00 | 0.00 | 0.00 | 94 | 1006.3 |
| 20260507101143 | 19 | 31 | 0.0 | 0.0 | 0.00 | 0.00 | 0.00 | 94 | 1005.9 |
| 20260507101139 | 19 | 31 | 0.0 | 0.0 | 0.00 | 0.00 | 0.00 | 94 | 1005.9 |
| 20260507100143 | 19 | 21 | 0.0 | 0.0 | 0.00 | 0.00 | 0.00 | 93 | 1005.9 |
| 20260507100137 | 19 | 21 | 0.0 | 0.0 | 0.00 | 0.00 | 0.00 | 93 | 1005.9 |
| 20260507095142 | 20 | 8 | 1.6 | 0.0 | 0.00 | 0.00 | 0.00 | 93 | 1005.6 |
| 20260507095136 | 20 | 8 | 1.6 | 0.0 | 0.00 | 0.00 | 0.00 | 93 | 1005.6 |
| 20260507094142 | 20 | 23 | 0.0 | 0.0 | 0.00 | 0.00 | 0.00 | 92 | 1005.6 |
| 20260507094135 | 20 | 23 | 0.0 | 0.0 | 0.00 | 0.00 | 0.00 | 92 | 1005.6 |
| 20260507093141 | 20 | 129 | 3.2 | 0.0 | 0.00 | 0.00 | 0.00 | 92 | 1005.6 |
| 20260507093135 | 20 | 129 | 3.2 | 0.0 | 0.00 | 0.00 | 0.00 | 92 | 1005.6 |
| 20260507092141 | 20 | 33 | 0.0 | 0.0 | 0.00 | 0.00 | 0.00 | 91 | 1005.6 |
| 20260507092134 | 20 | 33 | 0.0 | 0.0 | 0.00 | 0.00 | 0.00 | 91 | 1005.6 |
| 20260507091140 | 20 | 358 | 1.6 | 0.0 | 0.00 | 0.00 | 0.00 | 92 | 1005.6 |
| 20260507091134 | 20 | 358 | 1.6 | 0.0 | 0.00 | 0.00 | 0.00 | 92 | 1005.6 |
| 20260507090139 | 20 | 42 | 1.6 | 0.0 | 0.00 | 0.00 | 0.00 | 91 | 1005.6 |
| 20260507090133 | 20 | 42 | 1.6 | 0.0 | 0.00 | 0.00 | 0.00 | 91 | 1005.6 |
| 20260507085139 | 19 | 64 | 1.6 | 0.0 | 0.00 | 0.00 | 0.00 | 93 | 1005.6 |
| 20260507085133 | 19 | 33 | 0.0 | 0.0 | 0.00 | 0.00 | 0.00 | 93 | 1005.6 |
| 20260507084138 | 19 | 304 | 1.6 | 0.0 | 0.00 | 0.00 | 0.00 | 94 | 1005.6 |
| 20260507084132 | 19 | 304 | 1.6 | 0.0 | 0.00 | 0.00 | 0.00 | 94 | 1005.6 |
| 20260507083138 | 18 | 38 | 0.0 | 0.0 | 0.00 | 0.00 | 0.00 | 96 | 1005.6 |
| 20260507083131 | 18 | 38 | 0.0 | 0.0 | 0.00 | 0.00 | 0.00 | 96 | 1005.6 |
| 20260507082137 | 18 | 33 | 0.0 | 0.0 | 0.00 | 0.00 | 0.00 | 96 | 1005.6 |
| 20260507082131 | 18 | 33 | 0.0 | 0.0 | 0.00 | 0.00 | 0.00 | 96 | 1005.6 |
| 20260507081137 | 18 | 43 | 0.0 | 0.0 | 0.00 | 0.00 | 0.00 | 95 | 1005.6 |
| 20260507081130 | 18 | 43 | 0.0 | 0.0 | 0.00 | 0.00 | 0.00 | 95 | 1005.6 |
| 20260507080136 | 18 | 43 | 0.0 | 0.0 | 0.00 | 0.00 | 0.00 | 94 | 1005.6 |
| 20260507080130 | 18 | 43 | 0.0 | 0.0 | 0.00 | 0.00 | 0.00 | 94 | 1005.6 |
| 20260507075136 | 18 | 42 | 0.0 | 0.0 | 0.00 | 0.00 | 0.00 | 94 | 1005.6 |
| 20260507075129 | 18 | 42 | 0.0 | 0.0 | 0.00 | 0.00 | 0.00 | 95 | 1005.6 |
| 20260507074135 | 19 | 42 | 0.0 | 0.0 | 0.00 | 0.00 | 0.00 | 95 | 1005.6 |
| 20260507074128 | 19 | 42 | 0.0 | 0.0 | 0.00 | 0.00 | 0.00 | 95 | 1005.6 |
| 20260507073135 | 19 | 31 | 0.0 | 0.0 | 0.00 | 0.00 | 0.00 | 94 | 1005.6 |
| 20260507073128 | 19 | 31 | 0.0 | 0.0 | 0.00 | 0.00 | 0.00 | 94 | 1005.6 |
| 20260507072134 | 19 | 26 | 0.0 | 0.0 | 0.00 | 0.00 | 0.00 | 94 | 1005.6 |
| 20260507072127 | 19 | 26 | 0.0 | 0.0 | 0.00 | 0.00 | 0.00 | 94 | 1005.6 |
| 20260507071134 | 19 | 40 | 0.0 | 0.0 | 0.00 | 0.00 | 0.00 | 94 | 1005.6 |
| 20260507071127 | 19 | 40 | 0.0 | 0.0 | 0.00 | 0.00 | 0.00 | 94 | 1005.6 |
| 20260507070133 | 19 | 33 | 0.0 | 0.0 | 0.00 | 0.00 | 0.00 | 93 | 1005.6 |
| 20260507070126 | 19 | 33 | 0.0 | 0.0 | 0.00 | 0.00 | 0.00 | 93 | 1005.6 |
| 20260507065125 | 20 | 47 | 0.0 | 0.0 | 0.00 | 0.00 | 0.00 | 91 | 1005.9 |
| 20260507064125 | 19 | 35 | 0.0 | 0.0 | 0.00 | 0.00 | 0.00 | 92 | 1005.9 |
| 20260507063124 | 20 | 39 | 0.0 | 0.0 | 0.00 | 0.00 | 0.00 | 90 | 1005.9 |
| 20260507062124 | 20 | 44 | 0.0 | 0.0 | 0.00 | 0.00 | 0.00 | 90 | 1006.3 |
| 20260507061123 | 20 | 58 | 0.0 | 0.0 | 0.00 | 0.00 | 0.00 | 89 | 1006.3 |
| 20260507060122 | 20 | 50 | 0.0 | 0.0 | 0.00 | 0.00 | 0.00 | 87 | 1006.3 |
| 20260507055123 | 21 | 30 | 0.0 | 0.0 | 0.00 | 0.00 | 0.00 | 86 | 1006.6 |
| 20260507054122 | 21 | 16 | 0.0 | 0.0 | 0.00 | 0.00 | 0.00 | 86 | 1006.6 |
| 20260507053121 | 21 | 30 | 0.0 | 0.0 | 0.00 | 0.00 | 0.00 | 85 | 1006.6 |
| 20260507052120 | 21 | 27 | 1.6 | 0.0 | 0.00 | 0.00 | 0.00 | 85 | 1006.6 |
| 20260507051119 | 21 | 90 | 1.6 | 0.0 | 0.00 | 0.00 | 0.00 | 85 | 1007.3 |
| 20260507050119 | 21 | 39 | 0.0 | 0.0 | 0.00 | 0.00 | 0.00 | 85 | 1007.3 |
| 20260507045118 | 22 | 88 | 1.6 | 0.0 | 0.00 | 0.00 | 0.00 | 83 | 1007.3 |
| 20260507044118 | 22 | 281 | 3.2 | 0.0 | 0.00 | 0.00 | 0.00 | 81 | 1007.3 |
| 20260507043117 | 23 | 12 | 1.6 | 0.0 | 0.00 | 0.00 | 0.00 | 80 | 1006.3 |
| 20260507042116 | 24 | 307 | 1.6 | 0.0 | 0.00 | 0.00 | 0.00 | 79 | 1006.3 |
| 20260507041116 | 24 | 81 | 6.4 | 0.0 | 0.00 | 0.00 | 0.00 | 78 | 1006.3 |
| 20260507040115 | 24 | 90 | 3.2 | 0.0 | 0.00 | 0.00 | 0.00 | 78 | 1006.3 |
| 20260507035115 | 24 | 356 | 1.6 | 0.0 | 0.00 | 0.00 | 0.00 | 78 | 1006.3 |
| 20260507034114 | 24 | 149 | 8.0 | 0.0 | 0.00 | 0.00 | 0.00 | 77 | 1006.3 |
| 20260507033114 | 24 | 69 | 3.2 | 0.0 | 0.00 | 0.00 | 0.00 | 77 | 1006.3 |
| 20260507032113 | 24 | 156 | 6.4 | 0.0 | 0.00 | 0.00 | 0.00 | 76 | 1006.6 |
| 20260507031112 | 24 | 157 | 8.0 | 0.0 | 0.00 | 0.00 | 0.00 | 76 | 1006.3 |
| 20260507030112 | 24 | 125 | 8.0 | 0.0 | 0.00 | 0.00 | 0.00 | 75 | 1006.3 |
| 20260507025111 | 24 | 111 | 1.6 | 0.0 | 0.00 | 0.00 | 0.00 | 75 | 1006.3 |
| 20260507024110 | 24 | 93 | 3.2 | 0.0 | 0.00 | 0.00 | 0.00 | 75 | 1006.3 |
| 20260507023110 | 25 | 159 | 4.8 | 0.0 | 0.00 | 0.00 | 0.00 | 74 | 1006.3 |
| 20260507022109 | 25 | 170 | 4.8 | 0.0 | 0.00 | 0.00 | 0.00 | 74 | 1006.3 |
| 20260507021108 | 25 | 91 | 4.8 | 0.0 | 0.00 | 0.00 | 0.00 | 74 | 1006.6 |
| 20260507020109 | 25 | 108 | 8.0 | 0.0 | 0.00 | 0.00 | 0.00 | 73 | 1006.6 |
| 20260507015108 | 25 | 145 | 4.8 | 0.0 | 0.00 | 0.00 | 0.00 | 72 | 1006.3 |
| 20260507014107 | 25 | 114 | 6.4 | 0.0 | 0.00 | 0.00 | 0.00 | 70 | 1006.3 |
| 20260507013107 | 25 | 149 | 3.2 | 0.0 | 0.00 | 0.00 | 0.00 | 69 | 1006.6 |
| 20260507012107 | 25 | 82 | 3.2 | 0.0 | 0.00 | 0.00 | 0.00 | 66 | 1006.6 |
| 20260507012105 | 25 | 82 | 3.2 | 0.0 | 0.00 | 0.00 | 0.00 | 66 | 1006.6 |
| 20260507011106 | 25 | 74 | 3.2 | 0.0 | 0.00 | 0.00 | 0.00 | 65 | 1006.3 |
| 20260507011104 | 25 | 74 | 3.2 | 0.0 | 0.00 | 0.00 | 0.00 | 65 | 1006.3 |
| 20260507010106 | 25 | 135 | 1.6 | 0.0 | 0.00 | 0.00 | 0.00 | 62 | 1006.3 |
| 20260507010104 | 25 | 135 | 1.6 | 0.0 | 0.00 | 0.00 | 0.00 | 62 | 1006.3 |
| 20260507005105 | 25 | 167 | 4.8 | 0.0 | 0.00 | 0.00 | 0.00 | 60 | 1006.3 |
| 20260507005101 | 25 | 167 | 4.8 | 0.0 | 0.00 | 0.00 | 0.00 | 60 | 1006.3 |
| 20260507004105 | 25 | 94 | 4.8 | 0.0 | 0.00 | 0.00 | 0.00 | 59 | 1006.3 |
| 20260507004101 | 25 | 94 | 4.8 | 0.0 | 0.00 | 0.00 | 0.00 | 59 | 1006.3 |
| 20260507003104 | 25 | 161 | 6.4 | 0.0 | 0.00 | 0.00 | 0.00 | 58 | 1006.3 |
| 20260507003100 | 25 | 161 | 6.4 | 0.0 | 0.00 | 0.00 | 0.00 | 58 | 1006.3 |
| 20260507002103 | 26 | 138 | 4.8 | 0.0 | 0.00 | 0.00 | 0.00 | 55 | 1006.3 |
| 20260507002059 | 26 | 138 | 4.8 | 0.0 | 0.00 | 0.00 | 0.00 | 55 | 1006.3 |
| 20260507001103 | 26 | 176 | 1.6 | 0.0 | 0.00 | 0.00 | 0.00 | 55 | 1006.3 |
| 20260507001059 | 26 | 176 | 1.6 | 0.0 | 0.00 | 0.00 | 0.00 | 55 | 1006.3 |
| 20260507000058 | 26 | 182 | 11.3 | 0.0 | 0.00 | 0.00 | 0.00 | 53 | 1005.9 |
| 20260506235102 | 26 | 82 | 6.4 | 0.0 | 0.00 | 0.00 | 0.00 | 51 | 1005.9 |
| 20260506235057 | 26 | 82 | 6.4 | 0.0 | 0.00 | 0.00 | 0.00 | 51 | 1005.9 |
| 20260506234101 | 26 | 97 | 12.9 | 0.0 | 0.00 | 0.00 | 0.00 | 52 | 1005.9 |
| 20260506234056 | 26 | 97 | 12.9 | 0.0 | 0.00 | 0.00 | 0.00 | 52 | 1005.9 |
| 20260506233100 | 27 | 140 | 8.0 | 0.0 | 0.00 | 0.00 | 0.00 | 51 | 1006.3 |
| 20260506233055 | 27 | 140 | 8.0 | 0.0 | 0.00 | 0.00 | 0.00 | 51 | 1006.3 |
| 20260506232100 | 27 | 198 | 3.2 | 0.0 | 0.00 | 0.00 | 0.00 | 51 | 1005.9 |
| 20260506232054 | 27 | 198 | 3.2 | 0.0 | 0.00 | 0.00 | 0.00 | 51 | 1005.9 |
| 20260506231054 | 27 | 186 | 9.7 | 0.0 | 0.00 | 0.00 | 0.00 | 50 | 1005.9 |
| 20260506230053 | 27 | 162 | 8.0 | 0.0 | 0.00 | 0.00 | 0.00 | 49 | 1005.9 |
| 20260506225053 | 28 | 56 | 4.8 | 0.0 | 0.00 | 0.00 | 0.00 | 49 | 1005.9 |
| 20260506224052 | 28 | 127 | 9.7 | 0.0 | 0.00 | 0.00 | 0.00 | 47 | 1005.9 |
| 20260506223051 | 29 | 117 | 4.8 | 0.0 | 0.00 | 0.00 | 0.00 | 45 | 1005.9 |
| 20260506222051 | 30 | 205 | 4.8 | 0.0 | 0.00 | 0.00 | 0.00 | 44 | 1006.3 |